Weather History for Harvey, ND

Change the Weather History Date:

Tuesday, November 6, 2012

  Actual Average (KRUG) Record (KRUG)
Temperature  
Mean Temperature 35 °F -  
Max Temperature 46 °F 41 °F 68 °F (1949)
Min Temperature 24 °F 20 °F -13 °F (1991)
Degree Days  
Heating Degree Days 30    
Moisture  
Dew Point 31 °F    
Average Humidity 80    
Maximum Humidity 100    
Minimum Humidity 57    
Precipitation  
Precipitation 0.00 in - - ()
Sea Level Pressure  
Sea Level Pressure 29.96 in    
Wind  
Wind Speed 17 mph (WNW)    
Max Wind Speed 26 mph    
Max Gust Speed 36 mph    
Visibility 10 miles    
Events      
Averages and records for this station are not official NWS values.
T = Trace of Precipitation, MM = Missing Value Source: NWS Daily Summary

Daily Weather History Graph

Daily Weather History Graph

Search for Another Location

Airport:

Trip Planner

Search our weather history database for the weather conditions in past years. The results will help you decide how hot, cold, wet, or windy it might be!

Date:

Astronomy

Nov. 06, 2012 Rise Set
Actual Time 7:32 AM CST 5:13 PM CST
Civil Twilight 6:59 AM CST 5:46 PM CST
Nautical Twilight 6:22 AM CST 6:23 PM CST
Astronomical Twilight 5:46 AM CST 6:59 PM CST
Moon No Moon Rise 1:21 PM CST (11/6)
Length of Visible Light 10h 46m
Length of Day
9h 40m
Waning Gibbous, 53% of the Moon is Illuminated
Nov 6
Waning Gibbous
Nov 6
Last Quarter
Nov 13
New
Nov 20
First Quarter
Nov 28
Full

Hourly Weather History & Observations

Time (CST) Temp. Windchill Dew Point Humidity Pressure Visibility Wind Dir Wind Speed Gust Speed Precip Events Conditions
12:15 AM 37.4 °F 28.2 °F 32.0 °F 81% 29.81 in 10.0 mi WNW 16.1 mph 23.0 mph N/A   Clear
12:35 AM 37.4 °F 28.2 °F 32.0 °F 81% 29.81 in 10.0 mi WNW 16.1 mph 24.2 mph N/A   Clear
12:55 AM 35.6 °F 25.9 °F 32.0 °F 87% 29.81 in 10.0 mi WNW 16.1 mph 21.9 mph N/A   Clear
1:15 AM 35.6 °F 26.2 °F 32.0 °F 87% 29.83 in 10.0 mi WNW 15.0 mph 20.7 mph N/A   Clear
1:35 AM 35.6 °F 26.2 °F 32.0 °F 87% 29.83 in 10.0 mi WNW 15.0 mph - N/A   Clear
1:55 AM 35.6 °F 25.5 °F 32.0 °F 87% 29.84 in 10.0 mi WNW 17.3 mph 23.0 mph N/A   Clear
2:15 AM 35.6 °F 25.5 °F 32.0 °F 87% 29.84 in 10.0 mi WNW 17.3 mph 25.3 mph N/A   Scattered Clouds
2:35 AM 37.4 °F 27.2 °F 32.0 °F 81% 29.84 in 10.0 mi WNW 19.6 mph 27.6 mph N/A   Overcast
2:55 AM 37.4 °F 27.2 °F 32.0 °F 81% 29.84 in 10.0 mi WNW 19.6 mph 27.6 mph N/A   Overcast
3:15 AM 37.4 °F 26.9 °F 32.0 °F 81% 29.85 in 10.0 mi WNW 20.7 mph 27.6 mph N/A   Overcast
3:35 AM 37.4 °F 27.5 °F 32.0 °F 81% 29.85 in 10.0 mi WNW 18.4 mph 25.3 mph N/A   Mostly Cloudy
3:55 AM 37.4 °F 26.6 °F 32.0 °F 81% 29.85 in 10.0 mi WNW 21.9 mph 26.5 mph N/A   Mostly Cloudy
4:15 AM 37.4 °F 27.5 °F 32.0 °F 81% 29.86 in 10.0 mi WNW 18.4 mph 24.2 mph N/A   Overcast
4:35 AM 37.4 °F 26.6 °F 32.0 °F 81% 29.86 in 10.0 mi WNW 21.9 mph 31.1 mph N/A   Overcast
4:55 AM 37.4 °F 26.9 °F 32.0 °F 81% 29.87 in 10.0 mi WNW 20.7 mph 32.2 mph N/A   Overcast
5:15 AM 37.4 °F 26.9 °F 32.0 °F 81% 29.87 in 10.0 mi WNW 20.7 mph 27.6 mph N/A   Overcast
5:35 AM 37.4 °F 26.9 °F 32.0 °F 81% 29.88 in 10.0 mi WNW 20.7 mph 28.8 mph N/A   Overcast
5:55 AM 37.4 °F 26.1 °F 32.0 °F 81% 29.88 in 10.0 mi WNW 24.2 mph 32.2 mph N/A   Overcast
6:15 AM 37.4 °F 27.2 °F 32.0 °F 81% 29.89 in 10.0 mi WNW 19.6 mph 31.1 mph N/A   Overcast
6:35 AM 37.4 °F 26.6 °F 32.0 °F 81% 29.88 in 10.0 mi NW 21.9 mph 27.6 mph N/A   Overcast
6:55 AM 35.6 °F 24.5 °F 30.2 °F 81% 29.90 in 10.0 mi NW 20.7 mph 28.8 mph N/A   Overcast
7:15 AM 35.6 °F 24.5 °F 30.2 °F 81% 29.90 in 10.0 mi NW 20.7 mph 27.6 mph N/A   Scattered Clouds
7:35 AM 35.6 °F 24.8 °F 30.2 °F 81% 29.91 in 10.0 mi NW 19.6 mph 27.6 mph N/A   Clear
7:55 AM 35.6 °F 25.5 °F 30.2 °F 81% 29.92 in 10.0 mi NW 17.3 mph 26.5 mph N/A   Clear
8:15 AM 35.6 °F 25.2 °F 30.2 °F 81% 29.94 in 10.0 mi WNW 18.4 mph 24.2 mph N/A   Clear
8:35 AM 35.6 °F 25.5 °F 32.0 °F 87% 29.95 in 10.0 mi WNW 17.3 mph 23.0 mph N/A   Clear
8:55 AM 35.6 °F 24.8 °F 32.0 °F 87% 29.96 in 10.0 mi WNW 19.6 mph 27.6 mph N/A   Clear
9:15 AM 37.4 °F 26.9 °F 32.0 °F 81% 29.97 in 10.0 mi WNW 20.7 mph 26.5 mph N/A   Clear
9:35 AM 37.4 °F 27.2 °F 32.0 °F 81% 29.97 in 10.0 mi NW 19.6 mph 27.6 mph N/A   Clear
9:55 AM 37.4 °F 27.5 °F 32.0 °F 81% 29.97 in 10.0 mi WNW 18.4 mph 26.5 mph N/A   Clear
10:15 AM 39.2 °F 30.2 °F 32.0 °F 75% 29.97 in 10.0 mi NW 17.3 mph 25.3 mph N/A   Partly Cloudy
10:35 AM 39.2 °F 29.3 °F 32.0 °F 75% 29.98 in 10.0 mi NW 20.7 mph 28.8 mph N/A   Mostly Cloudy
10:55 AM 41.0 °F 32.2 °F 32.0 °F 70% 29.98 in 10.0 mi NW 18.4 mph 24.2 mph N/A   Partly Cloudy
11:15 AM 41.0 °F 31.9 °F 32.0 °F 70% 29.98 in 10.0 mi NW 19.6 mph 25.3 mph N/A   Clear
11:35 AM 42.8 °F 34.3 °F 32.0 °F 66% 29.98 in 10.0 mi NW 19.6 mph 25.3 mph N/A   Clear
11:55 AM 42.8 °F 33.8 °F 32.0 °F 66% 29.98 in 10.0 mi NW 21.9 mph 28.8 mph N/A   Clear
12:15 PM 44.6 °F 36.4 °F 32.0 °F 61% 29.98 in 10.0 mi NW 20.7 mph 27.6 mph N/A   Clear
12:35 PM 44.6 °F 35.5 °F 32.0 °F 61% 29.98 in 10.0 mi NW 25.3 mph 33.4 mph N/A   Clear
12:55 PM 44.6 °F 35.7 °F 32.0 °F 61% 29.97 in 10.0 mi NW 24.2 mph 31.1 mph N/A   Clear
1:15 PM 46.4 °F 37.9 °F 32.0 °F 57% 29.98 in 10.0 mi NW 25.3 mph 31.1 mph N/A   Clear
1:35 PM 46.4 °F 37.9 °F 32.0 °F 57% 29.98 in 10.0 mi NW 25.3 mph 33.4 mph N/A   Clear
1:55 PM 46.4 °F 38.3 °F 32.0 °F 57% 29.98 in 10.0 mi NW 23.0 mph 33.4 mph N/A   Clear
2:15 PM 46.4 °F 37.7 °F 32.0 °F 57% 29.99 in 10.0 mi NW 26.5 mph 35.7 mph N/A   Clear
2:35 PM 46.4 °F 38.5 °F 32.0 °F 57% 29.99 in 10.0 mi NNW 21.9 mph 33.4 mph N/A   Clear
2:55 PM 46.4 °F 37.9 °F 32.0 °F 57% 29.99 in 10.0 mi NW 25.3 mph 33.4 mph N/A   Clear
3:15 PM 46.4 °F 38.3 °F 32.0 °F 57% 30.00 in 10.0 mi NW 23.0 mph 31.1 mph N/A   Clear
3:35 PM 46.4 °F 38.7 °F 32.0 °F 57% 30.01 in 10.0 mi NW 20.7 mph 27.6 mph N/A   Clear
3:55 PM 44.6 °F 37.2 °F 32.0 °F 61% 30.01 in 10.0 mi NW 17.3 mph 27.6 mph N/A   Clear
4:15 PM 44.6 °F 37.4 °F 32.0 °F 61% 30.01 in 10.0 mi NW 16.1 mph 27.6 mph N/A   Clear
4:35 PM 42.8 °F 36.2 °F 32.0 °F 66% 30.02 in 10.0 mi NW 12.7 mph 23.0 mph N/A   Clear
4:55 PM 41.0 °F 34.3 °F 32.0 °F 70% 30.02 in 10.0 mi NNW 11.5 mph - N/A   Clear
5:15 PM 39.2 °F 33.0 °F 32.0 °F 75% 30.02 in 10.0 mi NW 9.2 mph - N/A   Clear
5:35 PM 35.6 °F 29.9 °F 32.0 °F 87% 30.03 in 10.0 mi NW 6.9 mph - N/A   Clear
5:55 PM 33.8 °F 27.7 °F 30.2 °F 87% 30.03 in 10.0 mi WNW 6.9 mph - N/A   Clear
6:15 PM 35.6 °F 29.2 °F 32.0 °F 87% 30.03 in 10.0 mi WNW 8.1 mph - N/A   Clear
6:35 PM 32.0 °F 25.6 °F 32.0 °F 100% 30.03 in 10.0 mi NW 6.9 mph - N/A   Clear
6:55 PM 32.0 °F 24.2 °F 30.2 °F 93% 30.04 in 10.0 mi NW 9.2 mph - N/A   Clear
7:15 PM 32.0 °F 24.8 °F 28.4 °F 87% 30.05 in 10.0 mi WNW 8.1 mph - N/A   Clear
7:35 PM 32.0 °F 26.4 °F 30.2 °F 93% 30.06 in 10.0 mi NNW 5.8 mph - N/A   Clear
7:55 PM 32.0 °F 26.4 °F 30.2 °F 93% 30.06 in 10.0 mi NW 5.8 mph - N/A   Clear
8:15 PM 32.0 °F 27.5 °F 30.2 °F 93% 30.06 in 10.0 mi NW 4.6 mph - N/A   Clear
8:35 PM 32.0 °F 24.8 °F 28.4 °F 87% 30.05 in 10.0 mi NW 8.1 mph - N/A   Clear
8:55 PM 30.2 °F 25.4 °F 28.4 °F 93% 30.06 in 10.0 mi NW 4.6 mph - N/A   Clear
9:15 PM 30.2 °F 23.4 °F 28.4 °F 93% 30.05 in 10.0 mi WNW 6.9 mph - N/A   Clear
9:35 PM 28.4 °F 22.2 °F 28.4 °F 100% 30.05 in 10.0 mi WNW 5.8 mph - N/A   Clear
9:55 PM 30.2 °F 23.4 °F 28.4 °F 93% 30.06 in 10.0 mi WNW 6.9 mph - N/A   Clear
10:15 PM 28.4 °F 22.2 °F 28.4 °F 100% 30.06 in 10.0 mi West 5.8 mph - N/A   Clear
10:35 PM 28.4 °F 21.2 °F 28.4 °F 100% 30.06 in 10.0 mi West 6.9 mph - N/A   Clear
10:55 PM 24.8 °F 17.9 °F 24.8 °F 100% 30.05 in 10.0 mi WSW 5.8 mph - N/A   Clear
11:15 PM 24.8 °F 16.1 °F 24.8 °F 100% 30.05 in 10.0 mi SW 8.1 mph - N/A   Clear
11:35 PM 24.8 °F 16.1 °F 24.8 °F 100% 30.06 in 10.0 mi SW 8.1 mph - N/A   Clear
11:55 PM 24.8 °F 16.1 °F 24.8 °F 100% 30.06 in 10.0 mi WSW 8.1 mph - N/A   Clear